Showing default

LAPAN A3, 41603

Orbit data source: Space-Track

LAPAN A3, 41603 is a payload satellite owned by LAPAN (ID) in SSO that was launched on Wed, 22 Jun 2016 UTC via a PSLV-XL launch vehicle from the Sirharikota (SRI). Payload-class satellites include a variety of spacecraft equipped with specific instruments for various scientific and technological missions. These include communications satellites like Starlink; space stations such as the ISS; scientific satellites like the Hubble; Earth observation satellites from companies like Planet Labs, Umbra, and HawkEye 360; GPS; miniature CubeSats for education and research; and military/defense satellites.

Loading next visibility...
Identifier
41603, 2016-040E
Orbit
SSO
Country
Flag of UnknownUnknown / INDO
Related business
Manufacturer
LAPAN
Mission
Operational Civil Imaging
Bus & Motor
TUBSAT, Unknown motor
Mass
120 kg wet, 120 kg dry
Launch date (UTC)
2016-06-22 (10 years ago)
Launch vehicle
PSLV-XL
Launch site
Sirharikota (SRI)
Object type
Payload
Rocket body
Debris
Shape & HBR
Box, 0.3 m
Radar Cross Section
0.120 m², Medium (>0.1 m² and < 1m²)

Expand to show TLE details & history
Last TLE update: 6 hours ago

TLE from 6 hours ago
0 LAPAN A3
1 41603U 16040E   26037.87377051  .00006354  00000-0  20694-3 0  9993
2 41603  97.1464  38.4180 0012267 117.9821 242.2664 15.32103818534851
Epoch: 2026-02-06T20:58Z
TLE epoch observation values (Epoch: 2026-02-06T20:58:13.772Z)
Latitude
-0.00003°
Longitude
-53.14477°
Altitude
476.569 km
Speed
7.625 km/s
True Right ascension
02h 33m 40s
True Declination
0° 00' 00"
Sunlit
Object was in daylight at epoch
Visualization orbit readout
Latitude
Unknown
Longitude
Unknown
Altitude
Unknown
Speed
Unknown
Apparent Right ascension
Unknown
Apparent Declination
Unknown
Sunlit
N/A
Visualization observer readout
Local Sidereal Time
04:40:03
Azimuth
Unknown
Elevation
Unknown
Doppler factor
Unknown
Orbital elements
Apogee altitude
474.872 km
Perigee altitude
458.079 km
Semi-major axis
6,844.612 km
Eccentricity
0.00123
Inclination
97.1464°
RAAN
38.418°
Arg. of periapsis
117.9821°
True anomaly
242.14207°
Mean anomaly
242.2664°
Eccentric anomaly
242.20423°
Mean motion
3.83283 °/min
Orbital period
93.93 mins
BSTAR
0.00020694
Loading maneuver chart data...
Computing Atmospheric mass density...
Loading historical data...
Loading historical data...
Loading historical data...
Loading historical data...
Loading historical data...
Loading historical data...
Loading historical data...

Documentation

Showing up to 5 results
|